[[{"header":{"parameterUnit":"m.s-1","parameterCategory":1,"la1":30.2991,"la2":30.254,"lo1":-89.0895,"lo2":-89.0444,"dy":0.0017,"dx":0.0017,"nx":28,"ny":28,"refTime":"2025-04-15T09:00:00:Z","depth":0,"parameterNumber":2,"parameterNumberName":"U-component_of_WINDS"},"data":[0,0,0,0,0,0,0,0,0,0,0,0,0,0,0,0,0,0,0,0,0,0,0,0,0,0,0,0,0,0,0,0,0,0,0,0,0,0,0,0,0,0,0,0,0,0,0,0,0,0,0,0,0,0,0,0,0,0,0.1268,0.1268,0,0.1217,0.1217,0.1216,0.1218,0.1219,0.122,0.1221,0.1164,0.1161,0.1159,0,0,0,0,0,0,0,0,0,0,0,0,0,0.1365,0.1364,0.1269,0.1268,0.1267,0.1217,0.1217,0.1216,0.1218,0.1219,0.122,0.1221,0.1164,0.1162,0.1159,0,0,0,0,0,0,0,0,0,0,0,0,0,0.1319,0.1363,0.1269,0.1263,0.1262,0.1217,0.1216,0.1216,0.1218,0.1219,0.122,0.1221,0.1165,0.1162,0.1159,0.1116,0,0,0.1148,0.1147,0,0,0,0,0,0,0,0,0.1322,0.1316,0.1264,0.1263,0.1262,0.1225,0.123,0.1182,0.1218,0.1234,0.1221,0.1222,0.1183,0.1178,0.1166,0.1113,0.1111,0.1148,0.1146,0.1145,0.1144,0,0,0,0,0,0,0,0.1325,0.1318,0.1248,0.1263,0.1262,0.1261,0.1256,0.1221,0.1203,0.1233,0.1233,0.1227,0.1182,0.1169,0.1165,0.111,0.1148,0.1145,0.1143,0.1142,0.1019,0.1018,0,0,0,0,0,0,0.133,0.1321,0.125,0.1247,0.1295,0.1259,0.1253,0.1236,0.1203,0.12,0.1226,0.1228,0.1174,0.1169,0.1163,0.111,0.1145,0.1142,0.114,0.102,0.1019,0.1018,0,0,0,0,0,0,0.1332,0.1324,0.1252,0.1284,0.1274,0.1256,0.1237,0.1234,0.1221,0.1198,0.1195,0.1216,0.1175,0.1167,0.1128,0.1108,0.114,0.1137,0.1022,0.102,0.1018,0.1004,0,0,0,0,0,0,0.1335,0.1325,0.1309,0.1283,0.1273,0.1219,0.1236,0.1232,0.1216,0.1217,0.1188,0.1184,0.1175,0.1133,0.1124,0.1104,0.1135,0.1024,0.1021,0.1019,0.1007,0.1002,0.0999,0,0,0,0,0,0.1339,0.1306,0.1308,0.1299,0.1253,0.1217,0.1211,0.1203,0.1214,0.1198,0.1183,0.1185,0.1112,0.1129,0.1119,0.1098,0.1025,0.1022,0.1019,0.1008,0.1003,0.0999,0,0,0,0,0,0,0.1328,0.1302,0.1304,0.1263,0.1243,0.1218,0.1197,0.1198,0.1173,0.1174,0.1164,0.1157,0.1118,0.1104,0.1123,0.1055,0.107,0.1065,0.1065,0.106,0.1056,0.1059,0.1132,0,0,0,0,0,0.1321,0.1296,0.1274,0.124,0.123,0.1215,0.1199,0.1195,0.1173,0.1164,0.1146,0.1124,0.1096,0.1077,0.105,0.1005,0.0998,0.0986,0.0982,0.0979,0.0974,0.0949,0.0943,0.1008,0.1008,0.1008,0,0,0.1306,0.1289,0.1273,0.1237,0.1221,0.1194,0.1208,0.1178,0.1158,0.1159,0.112,0.1107,0.1081,0.1039,0.1019,0.1026,0.0955,0.0975,0.0973,0.097,0.0946,0.0939,0.0934,0.1006,0.1007,0.1007,0,0,0.1264,0.1249,0.1218,0.1202,0.1178,0.1169,0.1162,0.1138,0.1129,0.1091,0.1092,0.1067,0.1019,0.1,0.0984,0.0938,0.0938,0.0929,0.0908,0.0883,0.0878,0.0874,0.0856,0.085,0.0925,0.0925,0.0925,0,0.1247,0.1208,0.1202,0.1173,0.1157,0.1159,0.1127,0.1112,0.1079,0.1068,0.1076,0.1017,0.0999,0.0953,0.0941,0.0929,0.0919,0.0931,0.088,0.0875,0.087,0.0853,0.0847,0.0924,0.0924,0.0924,0.0924,0,0.1188,0.1161,0.1139,0.1109,0.1091,0.106,0.105,0.1032,0.103,0.1019,0.098,0.096,0.0929,0.0918,0.0915,0.0871,0.0876,0.0882,0.0897,0.0863,0.0847,0.0841,0.0922,0.0923,0.0923,0.0923,0,0,0.1135,0.1105,0.1097,0.1084,0.1058,0.1036,0.1006,0.0977,0.0962,0.094,0.0913,0.0874,0.088,0.0862,0.0857,0.0836,0.08,0.0845,0.0845,0.0837,0.0749,0.0743,0.0735,0.0801,0.08,0.0799,0.0751,0,0.109,0.1038,0.1033,0.0985,0.0959,0.0962,0.0936,0.0916,0.0907,0.0882,0.0871,0.0843,0.0854,0.0843,0.0823,0.0808,0.0781,0.0812,0.0774,0.0773,0.0779,0.0727,0.072,0.0676,0.0744,0.0743,0.0742,0,0.1029,0.1007,0.0958,0.0937,0.0925,0.0902,0.0875,0.0853,0.0831,0.0826,0.0807,0.0805,0.0773,0.0791,0.0746,0.0766,0.0751,0.0742,0.074,0.0735,0.0754,0.0718,0.0661,0.0654,0.0732,0.0733,0.0734,0,0.0994,0.0953,0.0918,0.0906,0.0881,0.0864,0.0853,0.0833,0.0816,0.0793,0.0781,0.0754,0.0739,0.0718,0.0708,0.0722,0.0663,0.068,0.0656,0.0656,0.0642,0.0642,0.058,0.0635,0.0635,0.0635,0.0635,0,0.0943,0.0912,0.0902,0.088,0.0845,0.084,0.0806,0.0795,0.0777,0.0752,0.0753,0.073,0.072,0.0695,0.0687,0.0651,0.0644,0.0637,0.0635,0.0636,0.0637,0.0624,0.0626,0.0633,0.0634,0.0634,0.0634,0,0.0897,0.0889,0.0851,0.0831,0.0825,0.0801,0.0783,0.0761,0.0753,0.0722,0.0714,0.07,0.067,0.066,0.0623,0.0618,0.0575,0.0577,0.0583,0.0582,0.0558,0.056,0.0483,0.0473,0.0536,0.0536,0.0535,0,0.0864,0.084,0.0819,0.0803,0.0791,0.0766,0.075,0.0744,0.0726,0.0701,0.0682,0.0654,0.063,0.0583,0.0568,0.054,0.054,0.0515,0.0535,0.0537,0.0538,0.0539,0.0536,0.0511,0.051,0.051,0.0509,0,0.0805,0.0803,0.078,0.0756,0.0736,0.0717,0.0697,0.0684,0.0676,0.0656,0.0627,0.0609,0.0573,0.0544,0.0516,0.0503,0.0504,0.0504,0.0496,0.0496,0.05,0.0496,0.0571,0.0505,0.0505,0.0505,0.0506,0.0506,0.0763,0.0743,0.0725,0.0699,0.0685,0.0667,0.0646,0.0636,0.0612,0.0583,0.0581,0.0549,0.0529,0.0492,0.0478,0.0452,0.0458,0.0448,0.0445,0.0442,0.044,0.0506,0.0447,0.0447,0.0447,0.0447,0.0447,0,0.0703,0.0693,0.0669,0.0643,0.0623,0.0629,0.0608,0.0591,0.0563,0.0545,0.0523,0.0489,0.0461,0.0446,0.0418,0.04,0.04,0.0393,0.0393,0.039,0.0436,0.0445,0.0393,0.0393,0.0393,0.0393,0.0393,0.0393,0.067,0.0635,0.0631,0.0589,0.0578,0.0548,0.0536,0.052,0.0505,0.0468,0.0446,0.0437,0.0419,0.039,0.0365,0.0361,0.035,0.0342,0.0338,0.0381,0.0386,0.0392,0.0399,0.034,0.034,0.0293,0.0293,0.0293]},{"header":{"parameterUnit":"m.s-1","parameterCategory":1,"la1":30.2991,"la2":30.254,"lo1":-89.0895,"lo2":-89.0444,"dy":0.0017,"dx":0.0017,"nx":28,"ny":28,"refTime":"2025-04-15T09:00:00:Z","depth":0,"parameterNumber":3,"parameterNumberName":"V-component_of_WINDS"},"data":[0,0,0,0,0,0,0,0,0,0,0,0,0,0,0,0,0,0,0,0,0,0,0,0,0,0,0,0,0,0,0,0,0,0,0,0,0,0,0,0,0,0,0,0,0,0,0,0,0,0,0,0,0,0,0,0,0,0,-4.7006,-4.7006,0,-4.7015,-4.7015,-4.7015,-4.6898,-4.6895,-4.6892,-4.6889,-4.6896,-4.69,-4.6903,0,0,0,0,0,0,0,0,0,0,0,0,0,-4.6886,-4.6889,-4.7006,-4.7006,-4.7006,-4.7015,-4.7015,-4.7015,-4.6899,-4.6895,-4.6891,-4.6888,-4.6895,-4.6899,-4.6903,0,0,0,0,0,0,0,0,0,0,0,0,0,-4.6921,-4.689,-4.7006,-4.6949,-4.6944,-4.7015,-4.7015,-4.7015,-4.69,-4.6895,-4.689,-4.6886,-4.6894,-4.6899,-4.6903,-4.7028,0,0,-4.6918,-4.692,0,0,0,0,0,0,0,0,-4.6919,-4.6926,-4.6958,-4.6953,-4.6948,-4.6951,-4.6975,-4.7019,-4.6901,-4.6917,-4.6889,-4.6884,-4.6918,-4.6921,-4.6933,-4.7028,-4.7029,-4.6918,-4.6921,-4.6923,-4.6925,0,0,0,0,0,0,0,-4.6917,-4.6925,-4.7009,-4.6958,-4.6952,-4.6923,-4.6923,-4.6983,-4.6944,-4.6915,-4.6907,-4.6909,-4.6915,-4.6928,-4.6932,-4.7029,-4.6918,-4.6922,-4.6925,-4.6927,-4.7226,-4.7231,0,0,0,0,0,0,-4.6923,-4.6923,-4.7009,-4.701,-4.6922,-4.6929,-4.6928,-4.6955,-4.6943,-4.6937,-4.6913,-4.6904,-4.6923,-4.6927,-4.6932,-4.7077,-4.6923,-4.6928,-4.693,-4.7221,-4.7228,-4.7233,0,0,0,0,0,0,-4.6921,-4.6931,-4.7009,-4.6964,-4.6972,-4.6936,-4.6966,-4.6957,-4.6971,-4.6942,-4.6934,-4.6935,-4.6919,-4.6925,-4.7005,-4.7075,-4.693,-4.6934,-4.7215,-4.7223,-4.723,-4.7368,0,0,0,0,0,0,-4.6918,-4.6931,-4.6979,-4.6966,-4.6975,-4.7083,-4.6971,-4.6961,-4.698,-4.6967,-4.696,-4.6954,-4.6916,-4.6999,-4.701,-4.7079,-4.6938,-4.7209,-4.7219,-4.7228,-4.7357,-4.7379,-4.7398,0,0,0,0,0,-4.6914,-4.7017,-4.6982,-4.6993,-4.7033,-4.7087,-4.7092,-4.7046,-4.6986,-4.7033,-4.7014,-4.6954,-4.7066,-4.7008,-4.7019,-4.7091,-4.7204,-4.7216,-4.7227,-4.7348,-4.7375,-4.7398,0,0,0,0,0,0,-4.7038,-4.7014,-4.6975,-4.7077,-4.7085,-4.7067,-4.7125,-4.7077,-4.7101,-4.7089,-4.703,-4.703,-4.7119,-4.7113,-4.7048,-4.7211,-4.7124,-4.7139,-4.7212,-4.7238,-4.7258,-4.7258,-4.6942,0,0,0,0,0,-4.7077,-4.7124,-4.71,-4.7192,-4.7198,-4.7162,-4.7183,-4.7147,-4.7153,-4.7156,-4.7142,-4.715,-4.7186,-4.7211,-4.7243,-4.7355,-4.7352,-4.7411,-4.7431,-4.7449,-4.7462,-4.752,-4.7546,-4.7271,-4.7271,-4.7271,0,0,-4.7159,-4.7152,-4.7184,-4.7217,-4.7219,-4.7268,-4.7165,-4.7221,-4.7256,-4.7164,-4.7238,-4.7229,-4.7233,-4.733,-4.7372,-4.7328,-4.7537,-4.7463,-4.7477,-4.7481,-4.7535,-4.7561,-4.7584,-4.7279,-4.7277,-4.7276,0,0,-4.7332,-4.7332,-4.7409,-4.7413,-4.7417,-4.7392,-4.7411,-4.7401,-4.7391,-4.7465,-4.7397,-4.7438,-4.7502,-4.7508,-4.7519,-4.7695,-4.7641,-4.7707,-4.7816,-4.7874,-4.7896,-4.7915,-4.7977,-4.8001,-4.7721,-4.7721,-4.7721,0,-4.7433,-4.7504,-4.7454,-4.7515,-4.7531,-4.745,-4.7528,-4.7534,-4.7548,-4.7561,-4.7512,-4.7591,-4.7588,-4.7685,-4.7728,-4.774,-4.7759,-4.7708,-4.7897,-4.7915,-4.7932,-4.7991,-4.8015,-4.7729,-4.7728,-4.7727,-4.7726,0,-4.7628,-4.7678,-4.774,-4.7757,-4.778,-4.7849,-4.7808,-4.7838,-4.78,-4.778,-4.7857,-4.785,-4.788,-4.79,-4.7863,-4.7992,-4.7964,-4.7907,-4.7818,-4.7967,-4.8022,-4.8044,-4.774,-4.7737,-4.7735,-4.7733,0,0,-4.788,-4.7868,-4.7892,-4.7899,-4.7898,-4.7935,-4.8,-4.8029,-4.8056,-4.8068,-4.8121,-4.8177,-4.8124,-4.8137,-4.8101,-4.8152,-4.8292,-4.8088,-4.8087,-4.8126,-4.8433,-4.8476,-4.8503,-4.8256,-4.826,-4.8263,-4.8432,0,-4.8049,-4.8159,-4.8116,-4.823,-4.8276,-4.82,-4.8256,-4.8262,-4.8245,-4.828,-4.8261,-4.8302,-4.8229,-4.8236,-4.8283,-4.8265,-4.8353,-4.8252,-4.8304,-4.8307,-4.8306,-4.8532,-4.8578,-4.8738,-4.8454,-4.8457,-4.846,0,-4.826,-4.8283,-4.8402,-4.8393,-4.841,-4.8462,-4.8485,-4.8521,-4.8525,-4.8509,-4.8524,-4.8476,-4.8539,-4.8451,-4.8536,-4.8469,-4.8487,-4.8481,-4.8486,-4.8489,-4.8392,-4.8541,-4.8788,-4.8812,-4.8493,-4.849,-4.8488,0,-4.8433,-4.8492,-4.8571,-4.8579,-4.8571,-4.8609,-4.8607,-4.8606,-4.8627,-4.8647,-4.866,-4.8687,-4.8702,-4.8724,-4.8685,-4.8624,-4.8775,-4.8684,-4.8763,-4.8765,-4.8799,-4.8797,-4.9052,-4.8811,-4.8811,-4.881,-4.881,0,-4.8626,-4.8701,-4.8648,-4.8697,-4.8779,-4.8728,-4.8811,-4.8801,-4.8801,-4.8846,-4.8781,-4.8825,-4.877,-4.8808,-4.8778,-4.8853,-4.886,-4.8848,-4.884,-4.8854,-4.8856,-4.8866,-4.8854,-4.8817,-4.8815,-4.8814,-4.8813,0,-4.8832,-4.8799,-4.888,-4.8866,-4.8864,-4.8925,-4.8912,-4.8956,-4.8935,-4.8993,-4.9003,-4.897,-4.9011,-4.8974,-4.9013,-4.8993,-4.9093,-4.9068,-4.9092,-4.9085,-4.9166,-4.9159,-4.9436,-4.947,-4.9208,-4.9211,-4.9213,0,-4.8957,-4.9014,-4.9006,-4.9032,-4.9034,-4.9076,-4.9097,-4.9049,-4.9073,-4.9083,-4.9126,-4.9161,-4.9188,-4.9257,-4.9236,-4.9266,-4.9241,-4.9336,-4.9245,-4.9258,-4.9242,-4.924,-4.9245,-4.9355,-4.9358,-4.936,-4.9362,0,-4.9184,-4.9165,-4.9197,-4.9225,-4.9252,-4.9271,-4.9285,-4.9309,-4.926,-4.9291,-4.9332,-4.9353,-4.9393,-4.943,-4.9453,-4.945,-4.9399,-4.9391,-4.9411,-4.9427,-4.9439,-4.9433,-4.9142,-4.9385,-4.9383,-4.9381,-4.938,-4.9379,-4.9353,-4.94,-4.9402,-4.944,-4.9446,-4.9461,-4.9501,-4.9485,-4.952,-4.9549,-4.9519,-4.957,-4.9572,-4.9598,-4.9601,-4.964,-4.96,-4.9629,-4.9637,-4.9645,-4.9656,-4.9433,-4.9644,-4.9643,-4.9643,-4.9642,-4.9642,0,-4.9576,-4.9574,-4.961,-4.9632,-4.9662,-4.9611,-4.9624,-4.9653,-4.9698,-4.9705,-4.9733,-4.9781,-4.9816,-4.9798,-4.9828,-4.9863,-4.984,-4.9872,-4.9869,-4.987,-4.969,-4.967,-4.989,-4.989,-4.989,-4.989,-4.989,-4.989,-4.9696,-4.9772,-4.9754,-4.9832,-4.9829,-4.9879,-4.989,-4.9903,-4.9909,-4.9966,-4.9995,-4.9983,-4.998,-5.0009,-5.0039,-5.0033,-5.0047,-5.0088,-5.0074,-4.9907,-4.9882,-4.9859,-4.9839,-5.0092,-5.0092,-5.0249,-5.0251,-5.0252]}]]